Location: Poughquag
(41.6090°N, 73.6820°W)
Time: 02:50:18
(UTC-04:00)

Transit 2A Rocket - Pass Details

Date: 01 June 2020
Orbit: 584 x 919 km, 66.7° (Epoch: 06 July)

Event Time Altitude Azimuth Distance (km) Brightness Sun altitude
Rises 07:48:26 0° 329° (NNW) 3,517 8.2 24.7°
Reaches altitude 10° 07:50:55 10° 329° (NNW) 2,596 7.6 25.1°
Maximum altitude 07:57:03 86° 243° (WSW) 926 5.8 26.3°
Drops below altitude 10° 08:03:08 10° 154° (SSE) 2,582 8.1 27.4°
Sets 08:05:37 0° 153° (SSE) 3,497 8.7 27.8°
